RXI27 OERK-LTFM

Flight info

Callsign RXI27
Flight time N/A
Altitude 40000
Route OERK/15L IVON2E IVONU Z710 GAS G662 ASH B544 MODAD L768 FIRAS R655 KTN Q538 ALE M861 NISAP UM861 BUK UL615 ERSEN ERSE1A LTFM/35R
Aircraft A35K/H-SDE2E3GHIJ3J4J5LM1ORWXY/LB1D1

Departure

Time 2026-05-05 08:49
Airport King Khalid International Airport (OERK)

Arrival

Time N/A
Airport İstanbul Airport (LTFM)
Time Latitude Longitude Altitude Speed Heading
2026-05-05 08:24 24.94419 46.71258 2049 ft 0 kts 240°
2026-05-05 08:37 24.94428 46.71274 2052 ft 4 kts 240°
2026-05-05 08:37 24.94439 46.71295 2054 ft 3 kts 240°
2026-05-05 08:38 24.94448 46.71321 2047 ft 4 kts 275°
2026-05-05 08:38 24.94438 46.71344 2050 ft 3 kts 329°
2026-05-05 08:38 24.94416 46.71358 2047 ft 4 kts 330°
2026-05-05 08:38 24.94405 46.71365 2046 ft 2 kts 330°
2026-05-05 08:41 24.94417 46.71358 2047 ft 4 kts 332°
2026-05-05 08:41 24.94438 46.71345 2046 ft 5 kts 329°
2026-05-05 08:42 24.94505 46.71301 2051 ft 16 kts 329°
2026-05-05 08:42 24.94613 46.71230 2049 ft 20 kts 329°
2026-05-05 08:42 24.94745 46.71145 2053 ft 24 kts 330°
2026-05-05 08:42 24.94902 46.71046 2049 ft 28 kts 330°
2026-05-05 08:43 24.95080 46.70935 2050 ft 31 kts 330°
2026-05-05 08:43 24.95231 46.70898 2050 ft 15 kts 37°
2026-05-05 08:43 24.95284 46.70986 2049 ft 13 kts 59°
2026-05-05 08:43 24.95340 46.71087 2048 ft 18 kts 59°
2026-05-05 08:44 24.95408 46.71214 2052 ft 20 kts 59°
2026-05-05 08:44 24.95494 46.71245 2048 ft 10 kts 329°
2026-05-05 08:44 24.95579 46.71190 2050 ft 19 kts 330°
2026-05-05 08:44 24.95724 46.71099 2051 ft 29 kts 330°
2026-05-05 08:45 24.95925 46.70968 2047 ft 38 kts 330°
2026-05-05 08:45 24.96168 46.70817 2046 ft 41 kts 330°
2026-05-05 08:45 24.96418 46.70664 2047 ft 40 kts 331°
2026-05-05 08:45 24.96652 46.70518 2048 ft 37 kts 331°
2026-05-05 08:46 24.96871 46.70381 2048 ft 35 kts 330°
2026-05-05 08:46 24.97077 46.70249 2049 ft 33 kts 328°
2026-05-05 08:46 24.97269 46.70126 2048 ft 31 kts 330°
2026-05-05 08:46 24.97452 46.70012 2048 ft 29 kts 330°
2026-05-05 08:47 24.97580 46.70030 2050 ft 15 kts 61°
2026-05-05 08:47 24.97652 46.70183 2043 ft 27 kts 74°
2026-05-05 08:47 24.97566 46.70281 2044 ft 20 kts 154°
2026-05-05 08:47 24.97535 46.70299 2039 ft 0 kts 151°
2026-05-05 08:48 24.97497 46.70323 2040 ft 24 kts 150°
2026-05-05 08:48 24.97224 46.70495 2043 ft 66 kts 150°
2026-05-05 08:48 24.96710 46.70812 2037 ft 103 kts 152°
2026-05-05 08:49 24.95995 46.71271 2041 ft 134 kts 150°
2026-05-05 08:49 24.95096 46.71839 2039 ft 162 kts 150°
2026-05-05 08:49 24.94066 46.72500 2190 ft 174 kts 151°
2026-05-05 08:49 24.93089 46.73082 2771 ft 153 kts 155°
2026-05-05 08:50 24.92154 46.73690 3033 ft 167 kts 141°
2026-05-05 08:50 24.91323 46.74625 3125 ft 175 kts 134°
2026-05-05 08:50 24.90465 46.75612 3152 ft 181 kts 137°
2026-05-05 08:50 24.89543 46.76583 3214 ft 187 kts 139°
2026-05-05 08:51 24.88563 46.77558 3260 ft 194 kts 139°
2026-05-05 08:51 24.87472 46.78503 3126 ft 203 kts 149°
2026-05-05 08:51 24.86239 46.79278 3102 ft 207 kts 154°
2026-05-05 08:51 24.84944 46.80025 3089 ft 213 kts 154°
2026-05-05 08:52 24.83602 46.80791 3079 ft 221 kts 154°
2026-05-05 08:52 24.82235 46.81571 3109 ft 229 kts 154°
2026-05-05 08:52 24.80785 46.82404 3162 ft 240 kts 154°
2026-05-05 08:52 24.79255 46.83192 3285 ft 247 kts 162°
2026-05-05 08:53 24.77586 46.83737 3428 ft 254 kts 166°
2026-05-05 08:53 24.75842 46.84218 3567 ft 262 kts 167°
2026-05-05 08:53 24.74060 46.84707 3799 ft 264 kts 167°
2026-05-05 08:53 24.72279 46.85202 4105 ft 264 kts 168°
2026-05-05 08:54 24.70499 46.85698 4432 ft 265 kts 168°
2026-05-05 08:54 24.68706 46.86195 4727 ft 266 kts 168°
2026-05-05 08:54 24.67513 46.86526 4920 ft 267 kts 168°
2026-05-05 08:54 24.65693 46.86917 5177 ft 268 kts 178°
2026-05-05 08:55 24.63857 46.86628 5379 ft 270 kts 202°
2026-05-05 08:55 24.62308 46.85433 5464 ft 280 kts 229°
2026-05-05 08:55 24.61220 46.83606 5608 ft 291 kts 239°
2026-05-05 08:55 24.60258 46.81633 5859 ft 294 kts 240°
2026-05-05 08:56 24.59293 46.79635 6160 ft 297 kts 240°
2026-05-05 08:56 24.58316 46.77636 6511 ft 297 kts 239°
2026-05-05 08:56 24.57332 46.75645 6880 ft 296 kts 240°
2026-05-05 08:56 24.56348 46.73659 7225 ft 297 kts 239°
2026-05-05 08:57 24.55354 46.71668 7560 ft 297 kts 240°
2026-05-05 08:57 24.54355 46.69668 7874 ft 299 kts 240°
2026-05-05 08:57 24.53388 46.67635 8161 ft 302 kts 246°
2026-05-05 08:57 24.52955 46.65386 8549 ft 306 kts 269°
2026-05-05 08:58 24.53483 46.63105 8815 ft 315 kts 292°
2026-05-05 08:58 24.54578 46.61010 9224 ft 316 kts 297°
2026-05-05 08:58 24.55723 46.59015 9832 ft 307 kts 297°
2026-05-05 08:58 24.56837 46.57066 10450 ft 296 kts 297°
2026-05-05 08:59 24.57901 46.55175 11040 ft 285 kts 297°
2026-05-05 08:59 24.58928 46.53333 11461 ft 281 kts 297°
2026-05-05 08:59 24.59939 46.51508 11800 ft 279 kts 297°
2026-05-05 08:59 24.60945 46.49682 12111 ft 279 kts 297°
2026-05-05 09:00 24.61949 46.47853 12375 ft 280 kts 297°
2026-05-05 09:00 24.62958 46.46012 12641 ft 282 kts 296°
2026-05-05 09:00 24.63971 46.44161 12839 ft 284 kts 297°
2026-05-05 09:00 24.64993 46.42293 13061 ft 286 kts 297°
2026-05-05 09:01 24.66013 46.40428 13296 ft 287 kts 297°
2026-05-05 09:01 24.67045 46.38542 13538 ft 288 kts 297°
2026-05-05 09:01 24.68069 46.36669 13791 ft 290 kts 297°
2026-05-05 09:01 24.69108 46.34768 14007 ft 291 kts 297°
2026-05-05 09:02 24.70153 46.32853 14220 ft 292 kts 297°
2026-05-05 09:02 24.71200 46.30937 14455 ft 293 kts 297°
2026-05-05 09:02 24.72252 46.29010 14696 ft 294 kts 297°
2026-05-05 09:02 24.73307 46.27082 14953 ft 294 kts 297°
2026-05-05 09:03 24.74362 46.25150 15186 ft 295 kts 297°
2026-05-05 09:03 24.75421 46.23205 15445 ft 296 kts 297°
2026-05-05 09:03 24.76481 46.21256 15694 ft 297 kts 297°
2026-05-05 09:03 24.77546 46.19301 15927 ft 298 kts 297°
2026-05-05 09:04 24.78601 46.17362 16177 ft 299 kts 297°
2026-05-05 09:04 24.79671 46.15398 16448 ft 299 kts 296°
2026-05-05 09:04 24.80740 46.13432 16701 ft 300 kts 296°
2026-05-05 09:04 24.81817 46.11450 16893 ft 302 kts 296°
2026-05-05 09:05 24.82896 46.09465 17142 ft 303 kts 296°
2026-05-05 09:05 24.83980 46.07471 17373 ft 304 kts 296°
2026-05-05 09:05 24.85067 46.05468 17590 ft 305 kts 296°
2026-05-05 09:05 24.86158 46.03459 17817 ft 306 kts 296°
2026-05-05 09:06 24.87253 46.01442 18042 ft 307 kts 296°
2026-05-05 09:06 24.88350 45.99419 18248 ft 308 kts 296°
2026-05-05 09:06 24.89450 45.97391 18422 ft 309 kts 296°
2026-05-05 09:06 24.90557 45.95348 18578 ft 311 kts 296°
2026-05-05 09:07 24.91652 45.93328 18773 ft 312 kts 296°
2026-05-05 09:07 24.92768 45.91268 18940 ft 314 kts 296°
2026-05-05 09:07 24.93886 45.89202 19120 ft 315 kts 296°
2026-05-05 09:07 24.95010 45.87125 19282 ft 316 kts 296°
2026-05-05 09:08 24.96141 45.85034 19477 ft 317 kts 296°
2026-05-05 09:08 24.97272 45.82942 19638 ft 318 kts 296°
2026-05-05 09:08 24.98404 45.80847 19797 ft 319 kts 296°
2026-05-05 09:08 24.99543 45.78739 19971 ft 320 kts 296°
2026-05-05 09:09 25.00684 45.76625 20135 ft 322 kts 296°
2026-05-05 09:09 25.01830 45.74502 20276 ft 323 kts 296°
2026-05-05 09:09 25.02980 45.72369 20466 ft 324 kts 296°
2026-05-05 09:09 25.04120 45.70255 20614 ft 325 kts 296°
2026-05-05 09:10 25.05279 45.68105 20773 ft 326 kts 296°
2026-05-05 09:10 25.06419 45.65944 20947 ft 326 kts 294°
2026-05-05 09:10 25.07444 45.63718 21119 ft 325 kts 291°
2026-05-05 09:10 25.08399 45.61451 21280 ft 326 kts 290°
2026-05-05 09:11 25.09334 45.59170 21450 ft 327 kts 290°
2026-05-05 09:11 25.10279 45.56881 21605 ft 328 kts 290°
2026-05-05 09:11 25.11238 45.54595 21784 ft 329 kts 290°
2026-05-05 09:11 25.12218 45.52300 21939 ft 330 kts 291°
2026-05-05 09:12 25.13197 45.50033 22095 ft 332 kts 291°
2026-05-05 09:12 25.14196 45.47738 22252 ft 333 kts 291°
2026-05-05 09:12 25.15201 45.45434 22412 ft 334 kts 291°
2026-05-05 09:12 25.16210 45.43121 22569 ft 335 kts 291°
2026-05-05 09:13 25.17222 45.40802 22712 ft 336 kts 291°
2026-05-05 09:13 25.18236 45.38476 22901 ft 336 kts 291°
2026-05-05 09:13 25.19251 45.36143 23065 ft 337 kts 291°
2026-05-05 09:13 25.20265 45.33809 23210 ft 338 kts 291°
2026-05-05 09:14 25.21282 45.31466 23360 ft 339 kts 291°
2026-05-05 09:14 25.22302 45.29113 23511 ft 340 kts 291°
2026-05-05 09:14 25.23327 45.26749 23647 ft 341 kts 291°
2026-05-05 09:14 25.24354 45.24380 23770 ft 342 kts 291°
2026-05-05 09:15 25.25384 45.22001 23903 ft 343 kts 291°
2026-05-05 09:15 25.26402 45.19650 24025 ft 343 kts 291°
2026-05-05 09:15 25.27435 45.17263 24154 ft 344 kts 291°
2026-05-05 09:15 25.28468 45.14875 24286 ft 345 kts 290°
2026-05-05 09:16 25.29501 45.12486 24417 ft 345 kts 290°
2026-05-05 09:16 25.30537 45.10088 24565 ft 345 kts 290°
2026-05-05 09:16 25.31571 45.07695 24695 ft 345 kts 290°
2026-05-05 09:16 25.32596 45.05320 24841 ft 346 kts 290°
2026-05-05 09:17 25.33630 45.02922 24949 ft 346 kts 290°
2026-05-05 09:17 25.34669 45.00510 25070 ft 347 kts 290°
2026-05-05 09:17 25.35706 44.98102 25184 ft 348 kts 290°
2026-05-05 09:17 25.36749 44.95680 25309 ft 348 kts 290°
2026-05-05 09:18 25.37793 44.93256 25419 ft 348 kts 290°
2026-05-05 09:18 25.38835 44.90835 25534 ft 349 kts 290°
2026-05-05 09:18 25.39876 44.88412 25650 ft 349 kts 290°
2026-05-05 09:18 25.40920 44.85983 25765 ft 350 kts 290°
2026-05-05 09:19 25.41966 44.83550 25876 ft 350 kts 290°
2026-05-05 09:19 25.43014 44.81107 25990 ft 351 kts 290°
2026-05-05 09:19 25.44046 44.78702 26089 ft 351 kts 290°
2026-05-05 09:19 25.45095 44.76254 26202 ft 352 kts 290°
2026-05-05 09:20 25.46143 44.73807 26314 ft 352 kts 290°
2026-05-05 09:20 25.47194 44.71353 26416 ft 353 kts 290°
2026-05-05 09:20 25.48247 44.68893 26530 ft 353 kts 289°
2026-05-05 09:20 25.49302 44.66428 26622 ft 354 kts 290°
2026-05-05 09:21 25.50358 44.63957 26719 ft 354 kts 289°
2026-05-05 09:21 25.51417 44.61491 26836 ft 356 kts 290°
2026-05-05 09:21 25.52625 44.59085 26948 ft 359 kts 296°
2026-05-05 09:21 25.54076 44.56817 27040 ft 364 kts 302°
2026-05-05 09:22 25.55794 44.54722 27142 ft 369 kts 307°
2026-05-05 09:22 25.57612 44.52747 27238 ft 371 kts 309°
2026-05-05 09:22 25.59493 44.50790 27343 ft 372 kts 309°
2026-05-05 09:22 25.61407 44.48840 27434 ft 373 kts 310°
2026-05-05 09:23 25.63327 44.46894 27530 ft 374 kts 309°
2026-05-05 09:23 25.65247 44.44942 27621 ft 374 kts 309°
2026-05-05 09:23 25.67163 44.42983 27705 ft 374 kts 309°
2026-05-05 09:23 25.69077 44.41019 27813 ft 375 kts 309°
2026-05-05 09:24 25.70989 44.39049 27903 ft 375 kts 309°
2026-05-05 09:24 25.72902 44.37075 27963 ft 376 kts 308°
2026-05-05 09:24 25.74816 44.35096 28055 ft 376 kts 308°
2026-05-05 09:25 25.78654 44.31122 28183 ft 378 kts 308°
2026-05-05 09:25 25.82488 44.27151 28320 ft 380 kts 308°
2026-05-05 09:26 25.86364 44.23134 28455 ft 381 kts 308°
2026-05-05 09:26 25.90253 44.19102 28600 ft 383 kts 308°
2026-05-05 09:27 25.94132 44.15075 28697 ft 385 kts 308°
2026-05-05 09:27 25.98054 44.11000 28813 ft 387 kts 308°
2026-05-05 09:28 26.01989 44.06909 28913 ft 388 kts 308°
2026-05-05 09:28 26.05935 44.02803 29084 ft 389 kts 308°
2026-05-05 09:28 26.07908 44.00749 29206 ft 388 kts 308°
2026-05-05 09:29 26.09880 43.98695 29281 ft 388 kts 308°
2026-05-05 09:29 26.13823 43.94583 29456 ft 388 kts 308°
2026-05-05 09:30 26.17770 43.90462 29600 ft 389 kts 308°
2026-05-05 09:30 26.21716 43.86338 29724 ft 389 kts 308°
2026-05-05 09:31 26.25641 43.82231 29863 ft 389 kts 308°
2026-05-05 09:31 26.29425 43.77957 29969 ft 382 kts 300°
2026-05-05 09:32 26.32415 43.73152 30068 ft 375 kts 294°
2026-05-05 09:32 26.35155 43.68194 30165 ft 375 kts 293°
2026-05-05 09:33 26.37853 43.63214 30229 ft 375 kts 293°
2026-05-05 09:33 26.40561 43.58235 30346 ft 375 kts 293°
2026-05-05 09:34 26.43261 43.53296 30424 ft 375 kts 293°
2026-05-05 09:34 26.45985 43.48316 30500 ft 376 kts 293°
2026-05-05 09:35 26.48708 43.43330 30570 ft 376 kts 293°
2026-05-05 09:35 26.51428 43.38346 30684 ft 376 kts 293°
2026-05-05 09:35 26.52790 43.35849 30709 ft 376 kts 293°
2026-05-05 09:36 26.55509 43.30853 30760 ft 377 kts 294°
2026-05-05 09:36 26.58232 43.25848 30836 ft 377 kts 294°
2026-05-05 09:37 26.60954 43.20841 30909 ft 377 kts 293°
2026-05-05 09:37 26.63658 43.15860 30971 ft 377 kts 293°
2026-05-05 09:38 26.66385 43.10834 31013 ft 378 kts 293°
2026-05-05 09:38 26.68648 43.06659 31078 ft 378 kts 293°
2026-05-05 09:39 26.71832 43.00777 31172 ft 378 kts 293°
2026-05-05 09:39 26.74553 42.95745 31245 ft 378 kts 293°
2026-05-05 09:40 26.77263 42.90728 31280 ft 378 kts 293°
2026-05-05 09:40 26.79527 42.86530 31311 ft 378 kts 293°
2026-05-05 09:41 26.82248 42.81481 31363 ft 379 kts 293°
2026-05-05 09:41 26.84970 42.76426 31411 ft 379 kts 293°
2026-05-05 09:42 26.87689 42.71370 31451 ft 379 kts 293°
2026-05-05 09:42 26.90404 42.66315 31497 ft 379 kts 293°
2026-05-05 09:43 26.93121 42.61252 31566 ft 379 kts 293°
2026-05-05 09:43 26.95832 42.56197 31661 ft 378 kts 293°
2026-05-05 09:44 26.98541 42.51135 31710 ft 378 kts 292°
2026-05-05 09:44 27.01227 42.46110 31751 ft 378 kts 292°
2026-05-05 09:45 27.03929 42.41051 31798 ft 378 kts 292°
2026-05-05 09:45 27.06620 42.36009 31892 ft 376 kts 292°
2026-05-05 09:46 27.09309 42.30964 31946 ft 376 kts 292°
2026-05-05 09:46 27.11978 42.25947 31980 ft 376 kts 292°
2026-05-05 09:47 27.14660 42.20898 31996 ft 376 kts 292°
2026-05-05 09:47 27.17342 42.15843 32028 ft 376 kts 292°
2026-05-05 09:48 27.20024 42.10786 32055 ft 377 kts 292°
2026-05-05 09:48 27.22689 42.05754 32067 ft 377 kts 292°
2026-05-05 09:49 27.25366 42.00693 32091 ft 377 kts 292°
2026-05-05 09:49 27.28049 41.95621 32143 ft 377 kts 292°
2026-05-05 09:50 27.30732 41.90540 32152 ft 378 kts 292°
2026-05-05 09:50 27.33414 41.85453 32166 ft 378 kts 292°
2026-05-05 09:51 27.36097 41.80358 32173 ft 379 kts 292°
2026-05-05 09:51 27.38781 41.75254 32189 ft 379 kts 292°
2026-05-05 09:52 27.41527 41.70176 32202 ft 383 kts 296°
2026-05-05 09:52 27.45044 41.65586 32214 ft 395 kts 306°
2026-05-05 09:53 27.49070 41.61326 32236 ft 397 kts 307°
2026-05-05 09:53 27.53162 41.57152 32310 ft 396 kts 308°
2026-05-05 09:54 27.57242 41.52981 32336 ft 396 kts 307°
2026-05-05 09:54 27.61313 41.48775 32328 ft 396 kts 307°
2026-05-05 09:55 27.65341 41.44602 32338 ft 396 kts 307°
2026-05-05 09:55 27.69386 41.40394 32352 ft 396 kts 307°
2026-05-05 09:56 27.73435 41.36183 32367 ft 396 kts 307°
2026-05-05 09:56 27.77488 41.31968 32398 ft 396 kts 307°
2026-05-05 09:57 27.81549 41.27741 32398 ft 396 kts 307°
2026-05-05 09:57 27.85607 41.23513 32402 ft 397 kts 307°
2026-05-05 09:58 27.89662 41.19281 32401 ft 397 kts 307°
2026-05-05 09:58 27.93698 41.15071 32407 ft 397 kts 307°
2026-05-05 09:59 27.97760 41.10825 32425 ft 397 kts 307°
2026-05-05 09:59 28.01820 41.06574 32428 ft 398 kts 307°
2026-05-05 10:00 28.05883 41.02316 32430 ft 398 kts 307°
2026-05-05 10:00 28.09956 40.98046 32481 ft 398 kts 307°
2026-05-05 10:01 28.13997 40.93805 32499 ft 398 kts 307°
2026-05-05 10:01 28.18064 40.89531 32584 ft 397 kts 307°
2026-05-05 10:02 28.22120 40.85266 32610 ft 397 kts 307°
2026-05-05 10:02 28.26168 40.81002 32625 ft 397 kts 307°
2026-05-05 10:03 28.30215 40.76735 32635 ft 397 kts 307°
2026-05-05 10:03 28.34234 40.72493 32648 ft 397 kts 307°
2026-05-05 10:04 28.38281 40.68218 32647 ft 396 kts 307°
2026-05-05 10:04 28.42319 40.63946 32654 ft 397 kts 307°
2026-05-05 10:05 28.46327 40.59703 32703 ft 396 kts 306°
2026-05-05 10:05 28.50362 40.55426 32717 ft 396 kts 306°
2026-05-05 10:06 28.54394 40.51147 32726 ft 396 kts 306°
2026-05-05 10:06 28.58422 40.46868 32775 ft 395 kts 306°
2026-05-05 10:07 28.62438 40.42598 32803 ft 395 kts 306°
2026-05-05 10:07 28.66423 40.38355 32814 ft 395 kts 306°
2026-05-05 10:08 28.70436 40.34077 32819 ft 395 kts 306°
2026-05-05 10:08 28.74450 40.29794 32823 ft 394 kts 306°
2026-05-05 10:09 28.78454 40.25517 32831 ft 394 kts 306°
2026-05-05 10:09 28.82171 40.21782 32771 ft 414 kts 320°
2026-05-05 10:10 28.84843 40.20140 31577 ft 442 kts 322°
2026-05-05 10:10 28.87500 40.18466 31993 ft 430 kts 318°
2026-05-05 10:10 28.89971 40.16705 32467 ft 417 kts 315°
2026-05-05 10:10 28.92294 40.14810 32885 ft 404 kts 311°
2026-05-05 10:11 28.94424 40.12803 33288 ft 391 kts 307°
2026-05-05 10:11 28.96494 40.10734 32713 ft 407 kts 308°
2026-05-05 10:11 28.98780 40.08514 30082 ft 456 kts 310°
2026-05-05 10:11 29.01317 40.06055 27807 ft 484 kts 311°
2026-05-05 10:12 29.03902 40.03621 27104 ft 483 kts 313°
2026-05-05 10:12 29.06494 40.01236 26857 ft 472 kts 312°
2026-05-05 10:12 29.09036 39.98905 26660 ft 466 kts 312°
2026-05-05 10:12 29.11559 39.96582 26484 ft 465 kts 312°
2026-05-05 10:13 29.14069 39.94257 26307 ft 464 kts 312°
2026-05-05 10:13 29.16574 39.91924 26138 ft 463 kts 312°
2026-05-05 10:13 29.19064 39.89594 25958 ft 462 kts 311°
2026-05-05 10:13 29.21544 39.87258 25793 ft 460 kts 311°
2026-05-05 10:14 29.24004 39.84927 25625 ft 459 kts 311°
2026-05-05 10:14 29.26452 39.82591 25456 ft 458 kts 311°
2026-05-05 10:14 29.28876 39.80259 25312 ft 452 kts 311°
2026-05-05 10:14 29.31272 39.77950 24788 ft 448 kts 311°
2026-05-05 10:15 29.33655 39.75634 24110 ft 448 kts 311°
2026-05-05 10:15 29.36004 39.73327 23223 ft 451 kts 311°
2026-05-05 10:15 29.38511 39.71096 21955 ft 456 kts 316°
2026-05-05 10:15 29.41074 39.69162 20461 ft 444 kts 318°
2026-05-05 10:16 29.43660 39.67237 18746 ft 442 kts 319°
2026-05-05 10:16 29.46370 39.65560 17237 ft 446 kts 331°
2026-05-05 10:16 29.49425 39.64730 15900 ft 455 kts 348°
2026-05-05 10:16 29.52619 39.64855 14702 ft 466 kts
2026-05-05 10:17 29.55779 39.65627 14095 ft 464 kts 12°
2026-05-05 10:17 29.58727 39.67164 13454 ft 466 kts 26°
2026-05-05 10:17 29.61516 39.69031 12752 ft 463 kts 28°
2026-05-05 10:17 29.64122 39.71089 12677 ft 445 kts 42°
2026-05-05 10:18 29.65809 39.73921 12919 ft 420 kts 70°
2026-05-05 10:18 29.66255 39.77052 13091 ft 387 kts 99°
2026-05-05 10:18 29.65549 39.79848 13227 ft 345 kts 127°
2026-05-05 10:18 29.64284 39.82050 13126 ft 321 kts 139°
2026-05-05 10:19 29.62654 39.83863 11872 ft 333 kts 147°
2026-05-05 10:19 29.60715 39.85512 10395 ft 363 kts 148°
2026-05-05 10:19 29.58726 39.87449 9193 ft 383 kts 141°
2026-05-05 10:19 29.56772 39.89529 8078 ft 383 kts 140°
2026-05-05 10:20 29.54812 39.91564 7227 ft 370 kts 142°
2026-05-05 10:20 29.52908 39.93432 6860 ft 347 kts 140°
2026-05-05 10:20 29.51213 39.95215 6769 ft 317 kts 140°
2026-05-05 10:20 29.49656 39.96883 6507 ft 297 kts 138°
2026-05-05 10:21 29.48228 39.98473 6307 ft 276 kts 139°
2026-05-05 10:21 29.46858 39.99914 6075 ft 258 kts 141°
2026-05-05 10:21 29.45534 40.01209 5801 ft 242 kts 143°
2026-05-05 10:21 29.44247 40.02382 5501 ft 231 kts 145°
2026-05-05 10:22 29.43110 40.03650 5201 ft 225 kts 125°
2026-05-05 10:22 29.42431 40.05193 5026 ft 209 kts 108°
2026-05-05 10:22 29.42063 40.06733 4780 ft 192 kts 97°
2026-05-05 10:22 29.41909 40.08211 4305 ft 189 kts 91°
2026-05-05 10:23 29.41935 40.09728 3728 ft 191 kts 80°
2026-05-05 10:23 29.42145 40.11223 3234 ft 187 kts 74°
2026-05-05 10:23 29.42591 40.12546 2898 ft 171 kts 57°
2026-05-05 10:23 29.43182 40.13746 2506 ft 186 kts 56°
2026-05-05 10:24 29.43894 40.14912 3235 ft 173 kts 50°
2026-05-05 10:24 29.44632 40.15906 3963 ft 170 kts 44°
2026-05-05 10:24 29.45508 40.16972 4205 ft 195 kts 43°
2026-05-05 10:24 29.46517 40.18105 4676 ft 208 kts 41°
2026-05-05 10:25 29.47613 40.19249 5189 ft 216 kts 40°
2026-05-05 10:25 29.48779 40.20382 5461 ft 223 kts 35°
2026-05-05 10:25 29.50077 40.21411 5759 ft 229 kts 31°
2026-05-05 10:25 29.51451 40.22321 6070 ft 235 kts 27°
2026-05-05 10:26 29.52950 40.23121 6396 ft 240 kts 22°
2026-05-05 10:26 29.54544 40.23756 6730 ft 245 kts 15°
2026-05-05 10:26 29.56225 40.24186 7075 ft 250 kts
2026-05-05 10:26 29.57966 40.24316 7413 ft 254 kts 352°
2026-05-05 10:27 29.59680 40.23870 7683 ft 250 kts 334°
2026-05-05 10:27 29.61235 40.23035 7854 ft 241 kts 329°
2026-05-05 10:27 29.62719 40.22256 7660 ft 230 kts 334°
2026-05-05 10:27 29.64210 40.21668 7367 ft 224 kts 340°
2026-05-05 10:28 29.65726 40.21181 6952 ft 234 kts 340°
2026-05-05 10:28 29.67373 40.20620 6606 ft 258 kts 341°
2026-05-05 10:28 29.69143 40.20005 6322 ft 270 kts 341°
2026-05-05 10:28 29.70937 40.19353 6009 ft 269 kts 339°
2026-05-05 10:29 29.72698 40.18706 5712 ft 260 kts 340°
2026-05-05 10:29 29.74405 40.18060 5254 ft 260 kts 339°
2026-05-05 10:29 29.76133 40.17245 4043 ft 276 kts 327°
2026-05-05 10:29 29.77460 40.15664 3115 ft 276 kts 297°
2026-05-05 10:30 29.77950 40.13620 2626 ft 261 kts 281°
2026-05-05 10:30 29.78296 40.11479 2903 ft 411 kts 280°
2026-05-05 10:30 29.78900 40.08864 3090 ft 415 kts 292°